Time,TemperatureF,DewpointF,PressureIn,WindDirection,WindDirectionDegrees,WindSpeedMPH,WindSpeedGustMPH,Humidity,HourlyPrecipIn,Conditions,Clouds,dailyrainin,SoftwareType,DateUTC
2013-04-02 00:00:00,48.7,24.9,0.00,North,7,0.0,3.1,39,0.00,,---,0.00,VWS V13.01,2013-04-02 04:00:00,
2013-04-02 00:01:00,48.6,24.7,0.00,North,349,0.0,0.0,39,0.00,,---,0.00,VWS V13.01,2013-04-02 04:01:00,
2013-04-02 00:06:00,48.6,24.7,0.00,NNW,348,0.0,4.0,39,0.00,,---,0.00,VWS V13.01,2013-04-02 04:06:00,
2013-04-02 00:12:00,48.4,24.0,0.00,North,357,3.6,4.9,38,0.00,,---,0.00,VWS V13.01,2013-04-02 04:12:00,
2013-04-02 00:17:00,48.4,24.0,0.00,North,0,3.6,4.9,38,0.00,,---,0.00,VWS V13.01,2013-04-02 04:17:00,
2013-04-02 00:22:00,48.0,23.6,0.00,NNE,22,5.4,7.6,38,0.00,,---,0.00,VWS V13.01,2013-04-02 04:22:00,
2013-04-02 00:27:00,48.0,23.6,0.00,NNW,334,0.0,7.6,38,0.00,,---,0.00,VWS V13.01,2013-04-02 04:27:00,
2013-04-02 00:32:00,47.8,23.5,0.00,North,8,0.0,7.6,38,0.00,,---,0.00,VWS V13.01,2013-04-02 04:32:00,
2013-04-02 00:37:00,47.8,23.5,0.00,NE,37,0.0,7.6,38,0.00,,---,0.00,VWS V13.01,2013-04-02 04:37:00,
2013-04-02 00:42:00,47.5,23.2,0.00,North,4,0.0,3.1,38,0.00,,---,0.00,VWS V13.01,2013-04-02 04:42:00,
2013-04-02 00:47:00,47.5,23.2,0.00,NNE,23,0.0,3.1,38,0.00,,---,0.00,VWS V13.01,2013-04-02 04:47:00,
2013-04-02 00:53:00,47.3,23.0,0.00,North,349,0.0,3.1,38,0.00,,---,0.00,VWS V13.01,2013-04-02 04:53:00,
2013-04-02 00:58:00,47.3,23.0,0.00,NNE,22,0.0,3.1,38,0.00,,---,0.00,VWS V13.01,2013-04-02 04:58:00,
2013-04-02 01:03:00,47.1,22.8,0.00,NNW,346,7.6,7.6,38,0.00,,---,0.00,VWS V13.01,2013-04-02 05:03:00,
2013-04-02 01:08:00,46.9,22.0,0.00,NNW,346,4.0,7.6,37,0.00,,---,0.00,VWS V13.01,2013-04-02 05:08:00,
2013-04-02 01:13:00,46.8,21.9,0.00,NNW,345,3.6,7.6,37,0.00,,---,0.00,VWS V13.01,2013-04-02 05:13:00,
2013-04-02 01:19:00,46.6,21.7,0.00,North,4,0.0,7.6,37,0.00,,---,0.00,VWS V13.01,2013-04-02 05:19:00,
2013-04-02 01:24:00,46.6,22.4,0.00,North,3,0.0,3.1,38,0.00,,---,0.00,VWS V13.01,2013-04-02 05:24:00,
2013-04-02 01:29:00,46.4,22.2,0.00,North,3,0.0,3.1,38,0.00,,---,0.00,VWS V13.01,2013-04-02 05:29:00,
2013-04-02 01:34:00,46.2,22.0,0.00,NE,37,0.0,3.1,38,0.00,,---,0.00,VWS V13.01,2013-04-02 05:34:00,
2013-04-02 01:39:00,45.9,21.7,0.00,NE,37,0.0,3.1,38,0.00,,---,0.00,VWS V13.01,2013-04-02 05:39:00,
2013-04-02 01:44:00,45.5,22.0,0.00,NE,37,0.0,0.0,39,0.00,,---,0.00,VWS V13.01,2013-04-02 05:44:00,
2013-04-02 01:49:00,45.3,21.8,0.00,North,0,0.0,0.0,39,0.00,,---,0.00,VWS V13.01,2013-04-02 05:49:00,
2013-04-02 01:54:00,45.1,21.7,0.00,North,0,0.0,0.0,39,0.00,,---,0.00,VWS V13.01,2013-04-02 05:54:00,
2013-04-02 01:59:00,45.1,21.7,0.00,North,0,0.0,0.0,39,0.00,,---,0.00,VWS V13.01,2013-04-02 05:59:00,
2013-04-02 02:04:00,45.0,21.5,0.00,North,0,0.0,0.0,39,0.00,,---,0.00,VWS V13.01,2013-04-02 06:04:00,
2013-04-02 02:09:00,44.6,21.8,0.00,North,0,0.0,0.0,40,0.00,,---,0.00,VWS V13.01,2013-04-02 06:09:00,
2013-04-02 02:14:00,44.2,22.0,0.00,North,0,0.0,0.0,41,0.00,,---,0.00,VWS V13.01,2013-04-02 06:14:00,
2013-04-02 02:19:00,44.1,21.9,0.00,North,0,0.0,0.0,41,0.00,,---,0.00,VWS V13.01,2013-04-02 06:19:00,
2013-04-02 02:24:00,43.9,21.7,0.00,NNE,14,0.0,0.0,41,0.00,,---,0.00,VWS V13.01,2013-04-02 06:24:00,
2013-04-02 02:29:00,43.9,21.7,0.00,NNE,14,0.0,0.0,41,0.00,,---,0.00,VWS V13.01,2013-04-02 06:29:00,
2013-04-02 02:34:00,43.7,21.6,0.00,North,357,0.0,0.0,41,0.00,,---,0.00,VWS V13.01,2013-04-02 06:34:00,
2013-04-02 02:39:00,43.5,21.4,0.00,North,357,0.0,0.0,41,0.00,,---,0.00,VWS V13.01,2013-04-02 06:39:00,
2013-04-02 02:45:00,43.3,21.2,0.00,North,357,0.0,0.0,41,0.00,,---,0.00,VWS V13.01,2013-04-02 06:45:00,
2013-04-02 02:50:00,43.3,21.2,0.00,North,357,0.0,0.0,41,0.00,,---,0.00,VWS V13.01,2013-04-02 06:50:00,
2013-04-02 02:55:00,43.0,21.5,0.00,North,357,0.0,0.0,42,0.00,,---,0.00,VWS V13.01,2013-04-02 06:55:00,
2013-04-02 03:00:00,42.4,21.5,0.00,North,357,0.0,0.0,43,0.00,,---,0.00,VWS V13.01,2013-04-02 07:00:00,
2013-04-02 03:05:00,42.1,21.8,0.00,North,357,0.0,0.0,44,0.00,,---,0.00,VWS V13.01,2013-04-02 07:05:00,
2013-04-02 03:10:00,41.9,22.1,0.00,North,357,0.0,0.0,45,0.00,,---,0.00,VWS V13.01,2013-04-02 07:10:00,
2013-04-02 03:15:00,41.5,21.8,0.00,North,357,0.0,0.0,45,0.00,,---,0.00,VWS V13.01,2013-04-02 07:15:00,
2013-04-02 03:20:00,41.4,21.6,0.00,North,357,0.0,0.0,45,0.00,,---,0.00,VWS V13.01,2013-04-02 07:20:00,
2013-04-02 03:25:00,41.0,21.8,0.00,North,357,0.0,0.0,46,0.00,,---,0.00,VWS V13.01,2013-04-02 07:25:00,
2013-04-02 03:30:00,40.8,21.7,0.00,North,357,0.0,0.0,46,0.00,,---,0.00,VWS V13.01,2013-04-02 07:30:00,
2013-04-02 03:35:00,40.8,21.7,0.00,North,357,0.0,0.0,46,0.00,,---,0.00,VWS V13.01,2013-04-02 07:35:00,
2013-04-02 03:40:00,40.6,21.5,0.00,North,357,0.0,0.0,46,0.00,,---,0.00,VWS V13.01,2013-04-02 07:40:00,
2013-04-02 03:45:00,40.5,21.8,0.00,North,357,0.0,0.0,47,0.00,,---,0.00,VWS V13.01,2013-04-02 07:45:00,
2013-04-02 03:50:00,40.3,22.2,0.00,North,357,0.0,0.0,48,0.00,,---,0.00,VWS V13.01,2013-04-02 07:50:00,
2013-04-02 03:55:00,39.9,21.8,0.00,North,357,0.0,0.0,48,0.00,,---,0.00,VWS V13.01,2013-04-02 07:55:00,
2013-04-02 04:00:00,39.7,22.2,0.00,North,357,0.0,0.0,49,0.00,,---,0.00,VWS V13.01,2013-04-02 08:00:00,
2013-04-02 04:05:00,39.4,21.8,0.00,North,357,0.0,0.0,49,0.00,,---,0.00,VWS V13.01,2013-04-02 08:05:00,
2013-04-02 04:11:00,39.2,21.7,0.00,North,357,0.0,0.0,49,0.00,,---,0.00,VWS V13.01,2013-04-02 08:11:00,
2013-04-02 04:16:00,39.0,22.0,0.00,North,357,0.0,0.0,50,0.00,,---,0.00,VWS V13.01,2013-04-02 08:16:00,
2013-04-02 04:21:00,38.8,22.3,0.00,North,357,0.0,0.0,51,0.00,,---,0.00,VWS V13.01,2013-04-02 08:21:00,
2013-04-02 04:26:00,38.7,22.1,0.00,North,357,0.0,0.0,51,0.00,,---,0.00,VWS V13.01,2013-04-02 08:26:00,
2013-04-02 04:32:00,38.7,22.1,0.00,North,357,0.0,0.0,51,0.00,,---,0.00,VWS V13.01,2013-04-02 08:32:00,
2013-04-02 04:37:00,38.5,21.9,0.00,North,357,0.0,0.0,51,0.00,,---,0.00,VWS V13.01,2013-04-02 08:37:00,
2013-04-02 04:42:00,38.3,21.8,0.00,North,357,0.0,0.0,51,0.00,,---,0.00,VWS V13.01,2013-04-02 08:42:00,
2013-04-02 04:47:00,38.1,22.1,0.00,North,357,0.0,0.0,52,0.00,,---,0.00,VWS V13.01,2013-04-02 08:47:00,
2013-04-02 04:52:00,37.9,21.9,0.00,North,357,0.0,0.0,52,0.00,,---,0.00,VWS V13.01,2013-04-02 08:52:00,
2013-04-02 04:57:00,37.6,21.6,0.00,North,357,0.0,0.0,52,0.00,,---,0.00,VWS V13.01,2013-04-02 08:57:00,
2013-04-02 05:02:00,37.6,22.0,0.00,North,357,0.0,0.0,53,0.00,,---,0.00,VWS V13.01,2013-04-02 09:02:00,
2013-04-02 05:07:00,37.4,21.9,0.00,North,357,0.0,0.0,53,0.00,,---,0.00,VWS V13.01,2013-04-02 09:07:00,
2013-04-02 05:12:00,37.2,22.1,0.00,North,357,0.0,0.0,54,0.00,,---,0.00,VWS V13.01,2013-04-02 09:12:00,
2013-04-02 05:17:00,36.9,21.8,0.00,North,357,0.0,0.0,54,0.00,,---,0.00,VWS V13.01,2013-04-02 09:17:00,
2013-04-02 05:22:00,36.7,21.6,0.00,North,357,0.0,0.0,54,0.00,,---,0.00,VWS V13.01,2013-04-02 09:22:00,
2013-04-02 05:27:00,36.3,21.3,0.00,North,357,0.0,0.0,54,0.00,,---,0.00,VWS V13.01,2013-04-02 09:27:00,
2013-04-02 05:32:00,36.1,21.5,0.00,North,357,0.0,0.0,55,0.00,,---,0.00,VWS V13.01,2013-04-02 09:32:00,
2013-04-02 05:37:00,36.0,21.4,0.00,North,357,0.0,0.0,55,0.00,,---,0.00,VWS V13.01,2013-04-02 09:37:00,
2013-04-02 05:42:00,36.0,21.8,0.00,North,357,0.0,0.0,56,0.00,,---,0.00,VWS V13.01,2013-04-02 09:42:00,
2013-04-02 05:47:00,35.8,21.6,0.00,North,357,0.0,0.0,56,0.00,,---,0.00,VWS V13.01,2013-04-02 09:47:00,
2013-04-02 05:52:00,35.6,21.9,0.00,North,357,0.0,0.0,57,0.00,,---,0.00,VWS V13.01,2013-04-02 09:52:00,
2013-04-02 05:57:00,35.6,21.9,0.00,North,357,0.0,0.0,57,0.00,,---,0.00,VWS V13.01,2013-04-02 09:57:00,
2013-04-02 06:03:00,35.4,22.1,0.00,North,357,0.0,0.0,58,0.00,,---,0.00,VWS V13.01,2013-04-02 10:03:00,
2013-04-02 06:08:00,35.4,22.1,0.00,North,357,0.0,0.0,58,0.00,,---,0.00,VWS V13.01,2013-04-02 10:08:00,
2013-04-02 06:13:00,35.4,22.1,0.00,North,357,0.0,0.0,58,0.00,,---,0.00,VWS V13.01,2013-04-02 10:13:00,
2013-04-02 06:18:00,35.2,22.0,0.00,North,357,0.0,0.0,58,0.00,,---,0.00,VWS V13.01,2013-04-02 10:18:00,
2013-04-02 06:23:00,35.1,21.8,0.00,North,357,0.0,0.0,58,0.00,,---,0.00,VWS V13.01,2013-04-02 10:23:00,
2013-04-02 06:28:00,34.9,22.0,0.00,North,357,0.0,0.0,59,0.00,,---,0.00,VWS V13.01,2013-04-02 10:28:00,
2013-04-02 06:33:00,34.7,21.9,0.00,North,357,0.0,0.0,59,0.00,,---,0.00,VWS V13.01,2013-04-02 10:33:00,
2013-04-02 06:38:00,34.7,22.2,0.00,North,357,0.0,0.0,60,0.00,,---,0.00,VWS V13.01,2013-04-02 10:38:00,
2013-04-02 06:43:00,34.7,22.2,0.00,North,357,0.0,0.0,60,0.00,,---,0.00,VWS V13.01,2013-04-02 10:43:00,
2013-04-02 06:49:00,34.5,22.1,0.00,North,357,0.0,0.0,60,0.00,,---,0.00,VWS V13.01,2013-04-02 10:49:00,
2013-04-02 06:54:00,34.5,22.1,0.00,North,357,0.0,0.0,60,0.00,,---,0.00,VWS V13.01,2013-04-02 10:54:00,
2013-04-02 06:59:00,34.3,22.3,0.00,North,357,0.0,0.0,61,0.00,,---,0.00,VWS V13.01,2013-04-02 10:59:00,
2013-04-02 07:04:00,34.3,22.3,0.00,North,357,0.0,0.0,61,0.00,,---,0.00,VWS V13.01,2013-04-02 11:04:00,
2013-04-02 07:09:00,34.3,22.3,0.00,North,357,0.0,0.0,61,0.00,,---,0.00,VWS V13.01,2013-04-02 11:09:00,
2013-04-02 07:14:00,34.3,22.7,0.00,North,357,0.0,0.0,62,0.00,,---,0.00,VWS V13.01,2013-04-02 11:14:00,
2013-04-02 07:19:00,34.3,23.1,0.00,North,357,0.0,0.0,63,0.00,,---,0.00,VWS V13.01,2013-04-02 11:19:00,
2013-04-02 07:24:00,34.3,23.1,0.00,North,357,0.0,0.0,63,0.00,,---,0.00,VWS V13.01,2013-04-02 11:24:00,
2013-04-02 07:29:00,34.3,23.4,0.00,North,357,0.0,0.0,64,0.00,,---,0.00,VWS V13.01,2013-04-02 11:29:00,
2013-04-02 07:34:00,34.3,23.4,0.00,North,357,0.0,0.0,64,0.00,,---,0.00,VWS V13.01,2013-04-02 11:34:00,
2013-04-02 07:39:00,34.3,23.4,0.00,North,357,0.0,0.0,64,0.00,,---,0.00,VWS V13.01,2013-04-02 11:39:00,
2013-04-02 07:44:00,34.3,23.8,0.00,North,357,0.0,0.0,65,0.00,,---,0.00,VWS V13.01,2013-04-02 11:44:00,
2013-04-02 07:49:00,34.5,24.0,0.00,North,357,0.0,0.0,65,0.00,,---,0.00,VWS V13.01,2013-04-02 11:49:00,
2013-04-02 07:54:00,34.7,24.5,0.00,North,357,0.0,0.0,66,0.00,,---,0.00,VWS V13.01,2013-04-02 11:54:00,
2013-04-02 07:59:00,35.1,24.9,0.00,NNW,334,0.0,0.0,66,0.00,,---,0.00,VWS V13.01,2013-04-02 11:59:00,
2013-04-02 08:04:00,35.4,25.6,0.00,North,353,0.0,0.0,67,0.00,,---,0.00,VWS V13.01,2013-04-02 12:04:00,
2013-04-02 08:09:00,36.5,25.5,0.00,North,8,0.0,0.0,64,0.00,,---,0.00,VWS V13.01,2013-04-02 12:09:00,
2013-04-02 08:14:00,37.6,24.6,0.00,North,0,0.0,0.0,59,0.00,,---,0.00,VWS V13.01,2013-04-02 12:14:00,
2013-04-02 08:19:00,38.8,21.8,0.00,North,357,2.7,4.0,50,0.00,,---,0.00,VWS V13.01,2013-04-02 12:19:00,
2013-04-02 08:24:00,39.9,19.8,0.00,NNE,13,0.0,4.0,44,0.00,,---,0.00,VWS V13.01,2013-04-02 12:24:00,
2013-04-02 08:29:00,40.8,19.0,0.00,North,11,0.0,6.3,41,0.00,,---,0.00,VWS V13.01,2013-04-02 12:29:00,
2013-04-02 08:34:00,41.5,18.4,0.00,NNE,12,4.0,6.3,39,0.00,,---,0.00,VWS V13.01,2013-04-02 12:34:00,
2013-04-02 08:39:00,42.1,18.9,0.00,NNW,339,3.6,6.3,39,0.00,,---,0.00,VWS V13.01,2013-04-02 12:39:00,
2013-04-02 08:44:00,42.4,18.6,0.00,NNW,327,5.4,5.4,38,0.00,,---,0.00,VWS V13.01,2013-04-02 12:44:00,
2013-04-02 08:49:00,43.0,18.5,0.00,NE,41,4.9,7.6,37,0.00,,---,0.00,VWS V13.01,2013-04-02 12:49:00,
2013-04-02 08:55:00,43.3,17.5,0.00,NNE,29,6.3,8.1,35,0.00,,---,0.00,VWS V13.01,2013-04-02 12:55:00,
2013-04-02 09:00:00,43.5,17.7,0.00,NNE,23,2.7,8.1,35,0.00,,---,0.00,VWS V13.01,2013-04-02 13:00:00,
2013-04-02 09:05:00,44.1,18.2,0.00,North,11,2.7,10.1,35,0.00,,---,0.00,VWS V13.01,2013-04-02 13:05:00,
2013-04-02 09:10:00,44.6,18.0,0.00,North,353,2.7,10.1,34,0.00,,---,0.00,VWS V13.01,2013-04-02 13:10:00,
2013-04-02 09:15:00,45.0,18.3,0.00,NE,36,5.8,10.1,34,0.00,,---,0.00,VWS V13.01,2013-04-02 13:15:00,
2013-04-02 09:20:00,45.3,17.9,0.00,NNW,334,0.0,10.1,33,0.00,,---,0.00,VWS V13.01,2013-04-02 13:20:00,
2013-04-02 09:25:00,45.9,18.4,0.00,NNE,32,2.7,5.8,33,0.00,,---,0.00,VWS V13.01,2013-04-02 13:25:00,
2013-04-02 09:30:00,46.0,17.9,0.00,NNW,342,3.6,5.8,32,0.00,,---,0.00,VWS V13.01,2013-04-02 13:30:00,
2013-04-02 09:35:00,46.6,17.6,0.00,NE,36,4.0,5.8,31,0.00,,---,0.00,VWS V13.01,2013-04-02 13:35:00,
2013-04-02 09:40:00,46.9,17.9,0.00,NNE,16,4.9,4.9,31,0.00,,---,0.00,VWS V13.01,2013-04-02 13:40:00,
2013-04-02 09:45:00,47.3,18.2,0.00,East,91,3.1,4.9,31,0.00,,---,0.00,VWS V13.01,2013-04-02 13:45:00,
2013-04-02 09:50:00,47.7,18.5,0.00,NW,321,2.7,5.4,31,0.00,,---,0.00,VWS V13.01,2013-04-02 13:50:00,
2013-04-02 09:55:00,48.0,18.8,0.00,WSW,247,3.6,5.4,31,0.00,,---,0.00,VWS V13.01,2013-04-02 13:55:00,
2013-04-02 10:00:00,48.6,18.5,0.00,NW,322,4.9,5.8,30,0.00,,---,0.00,VWS V13.01,2013-04-02 14:00:00,
2013-04-02 10:05:00,48.7,18.7,0.00,West,271,4.9,8.3,30,0.00,,---,0.00,VWS V13.01,2013-04-02 14:05:00,
2013-04-02 10:10:00,48.6,17.8,0.00,NNW,342,4.0,8.3,29,0.00,,---,0.00,VWS V13.01,2013-04-02 14:10:00,
2013-04-02 10:15:00,48.7,17.9,0.00,NNE,12,3.1,8.3,29,0.00,,---,0.00,VWS V13.01,2013-04-02 14:15:00,
2013-04-02 10:20:00,49.1,18.2,0.00,NNW,338,8.3,8.7,29,0.00,,---,0.00,VWS V13.01,2013-04-02 14:20:00,
2013-04-02 10:25:00,49.5,18.5,0.00,NW,305,4.5,10.5,29,0.00,,---,0.00,VWS V13.01,2013-04-02 14:25:00,
2013-04-02 10:30:00,50.2,18.4,0.00,North,0,4.0,10.5,28,0.00,,---,0.00,VWS V13.01,2013-04-02 14:30:00,
2013-04-02 10:35:00,50.4,18.5,0.00,NNW,335,5.8,10.5,28,0.00,,---,0.00,VWS V13.01,2013-04-02 14:35:00,
2013-04-02 10:40:00,50.7,18.8,0.00,North,0,3.6,8.3,28,0.00,,---,0.00,VWS V13.01,2013-04-02 14:40:00,
2013-04-02 10:46:00,50.9,19.0,0.00,NNW,340,7.2,8.3,28,0.00,,---,0.00,VWS V13.01,2013-04-02 14:46:00,
2013-04-02 10:51:00,50.9,19.0,0.00,NNW,342,8.7,8.7,28,0.00,,---,0.00,VWS V13.01,2013-04-02 14:51:00,
2013-04-02 10:56:00,51.1,18.3,0.00,NW,319,5.4,8.7,27,0.00,,---,0.00,VWS V13.01,2013-04-02 14:56:00,
2013-04-02 11:01:00,51.4,18.6,0.00,WNW,300,2.7,6.3,27,0.00,,---,0.00,VWS V13.01,2013-04-02 15:01:00,
2013-04-02 11:06:00,51.6,18.8,0.00,NW,310,5.8,8.3,27,0.00,,---,0.00,VWS V13.01,2013-04-02 15:06:00,
2013-04-02 11:11:00,51.6,18.8,0.00,WNW,295,3.6,8.3,27,0.00,,---,0.00,VWS V13.01,2013-04-02 15:11:00,
2013-04-02 11:16:00,52.2,19.2,0.00,NNW,345,3.6,8.3,27,0.00,,---,0.00,VWS V13.01,2013-04-02 15:16:00,
2013-04-02 11:21:00,52.5,19.5,0.00,North,350,3.1,5.8,27,0.00,,---,0.00,VWS V13.01,2013-04-02 15:21:00,
2013-04-02 11:26:00,52.3,19.4,0.00,NNE,17,2.2,12.3,27,0.00,,---,0.00,VWS V13.01,2013-04-02 15:26:00,
2013-04-02 11:31:00,52.5,19.5,0.00,NNW,330,6.7,12.3,27,0.00,,---,0.00,VWS V13.01,2013-04-02 15:31:00,
2013-04-02 11:36:00,52.9,19.8,0.00,NNW,339,0.0,12.3,27,0.00,,---,0.00,VWS V13.01,2013-04-02 15:36:00,
2013-04-02 11:42:00,53.1,19.1,0.00,NNW,336,8.7,8.7,26,0.00,,---,0.00,VWS V13.01,2013-04-02 15:42:00,
2013-04-02 11:47:00,53.2,19.3,0.00,WSW,258,4.9,8.7,26,0.00,,---,0.00,VWS V13.01,2013-04-02 15:47:00,
2013-04-02 11:52:00,53.6,19.6,0.00,WNW,284,5.8,8.7,26,0.00,,---,0.00,VWS V13.01,2013-04-02 15:52:00,
2013-04-02 11:58:00,53.8,19.7,0.00,North,357,11.0,11.4,26,0.00,,---,0.00,VWS V13.01,2013-04-02 15:58:00,
2013-04-02 12:03:00,53.8,19.7,0.00,North,0,3.1,8.7,26,0.00,,---,0.00,VWS V13.01,2013-04-02 16:03:00,
2013-04-02 12:08:00,54.1,20.0,0.00,NNW,339,3.1,8.7,26,0.00,,---,0.00,VWS V13.01,2013-04-02 16:08:00,
2013-04-02 12:13:00,54.5,20.3,0.00,North,8,2.2,8.7,26,0.00,,---,0.00,VWS V13.01,2013-04-02 16:13:00,
2013-04-02 12:18:00,54.9,20.6,0.00,NW,304,6.3,8.7,26,0.00,,---,0.00,VWS V13.01,2013-04-02 16:18:00,
2013-04-02 12:23:00,54.9,20.6,0.00,NNW,333,8.1,8.1,26,0.00,,---,0.00,VWS V13.01,2013-04-02 16:23:00,
2013-04-02 12:28:00,54.7,20.5,0.00,NW,320,7.6,8.3,26,0.00,,---,0.00,VWS V13.01,2013-04-02 16:28:00,
2013-04-02 12:34:00,55.4,20.2,0.00,North,353,2.7,8.3,25,0.00,,---,0.00,VWS V13.01,2013-04-02 16:34:00,
2013-04-02 12:39:00,56.1,20.8,0.00,NNW,329,5.8,8.7,25,0.00,,---,0.00,VWS V13.01,2013-04-02 16:39:00,
2013-04-02 12:44:00,55.9,20.6,0.00,NNW,328,5.8,10.5,25,0.00,,---,0.00,VWS V13.01,2013-04-02 16:44:00,
2013-04-02 12:50:00,56.1,20.8,0.00,North,349,5.8,10.5,25,0.00,,---,0.00,VWS V13.01,2013-04-02 16:50:00,
2013-04-02 12:55:00,56.3,21.0,0.00,North,0,3.6,10.5,25,0.00,,---,0.00,VWS V13.01,2013-04-02 16:55:00,
2013-04-02 13:00:00,56.7,21.3,0.00,NNW,342,3.6,10.5,25,0.00,,---,0.00,VWS V13.01,2013-04-02 17:00:00,
2013-04-02 13:05:00,56.8,21.4,0.00,WNW,298,5.8,8.7,25,0.00,,---,0.00,VWS V13.01,2013-04-02 17:05:00,
2013-04-02 13:10:00,57.2,20.8,0.00,North,0,4.9,8.7,24,0.00,,---,0.00,VWS V13.01,2013-04-02 17:10:00,
2013-04-02 13:15:00,58.1,21.5,0.00,NNW,327,3.6,8.7,24,0.00,,---,0.00,VWS V13.01,2013-04-02 17:15:00,
2013-04-02 13:20:00,57.6,21.1,0.00,North,3,3.1,5.4,24,0.00,,---,0.00,VWS V13.01,2013-04-02 17:20:00,
2013-04-02 13:25:00,57.7,21.2,0.00,WSW,253,0.0,5.4,24,0.00,,---,0.00,VWS V13.01,2013-04-02 17:25:00,
2013-04-02 13:30:00,58.5,19.8,0.00,NNW,340,4.0,7.2,22,0.00,,---,0.00,VWS V13.01,2013-04-02 17:30:00,
2013-04-02 13:35:00,58.8,22.1,0.00,WSW,256,4.0,8.1,24,0.00,,---,0.00,VWS V13.01,2013-04-02 17:35:00,
2013-04-02 13:40:00,59.2,22.4,0.00,SSW,199,5.4,5.8,24,0.00,,---,0.00,VWS V13.01,2013-04-02 17:40:00,
2013-04-02 13:46:00,59.9,23.0,0.00,SW,214,0.0,5.8,24,0.00,,---,0.00,VWS V13.01,2013-04-02 17:46:00,
2013-04-02 13:51:00,60.3,23.4,0.00,North,3,2.7,8.3,24,0.00,,---,0.00,VWS V13.01,2013-04-02 17:51:00,
2013-04-02 13:56:00,60.1,23.2,0.00,NNW,341,6.3,8.7,24,0.00,,---,0.00,VWS V13.01,2013-04-02 17:56:00,
2013-04-02 14:01:00,60.4,23.5,0.00,ESE,115,0.0,3.6,24,0.00,,---,0.00,VWS V13.01,2013-04-02 18:01:00,
2013-04-02 14:06:00,61.2,20.9,0.00,NNW,328,3.1,8.7,21,0.00,,---,0.00,VWS V13.01,2013-04-02 18:06:00,
2013-04-02 14:11:00,61.0,20.8,0.00,West,267,5.8,8.7,21,0.00,,---,0.00,VWS V13.01,2013-04-02 18:11:00,
2013-04-02 14:17:00,61.2,20.9,0.00,WNW,297,0.0,8.7,21,0.00,,---,0.00,VWS V13.01,2013-04-02 18:17:00,
2013-04-02 14:22:00,61.2,20.9,0.00,West,273,2.7,7.2,21,0.00,,---,0.00,VWS V13.01,2013-04-02 18:22:00,
2013-04-02 14:27:00,61.3,21.1,0.00,South,187,4.0,7.2,21,0.00,,---,0.00,VWS V13.01,2013-04-02 18:27:00,
2013-04-02 14:32:00,61.7,21.4,0.00,NW,312,5.8,8.7,21,0.00,,---,0.00,VWS V13.01,2013-04-02 18:32:00,
2013-04-02 14:37:00,61.9,21.5,0.00,WSW,255,5.8,8.7,21,0.00,,---,0.00,VWS V13.01,2013-04-02 18:37:00,
2013-04-02 14:43:00,62.1,21.7,0.00,NW,304,5.4,5.8,21,0.00,,---,0.00,VWS V13.01,2013-04-02 18:43:00,
2013-04-02 14:48:00,62.4,22.0,0.00,NNW,330,4.0,7.2,21,0.00,,---,0.00,VWS V13.01,2013-04-02 18:48:00,
2013-04-02 14:53:00,62.2,19.5,0.00,NNW,341,8.7,8.7,19,0.00,,---,0.00,VWS V13.01,2013-04-02 18:53:00,
2013-04-02 14:58:00,61.9,19.2,0.00,NW,311,7.6,8.7,19,0.00,,---,0.00,VWS V13.01,2013-04-02 18:58:00,
2013-04-02 15:03:00,61.9,19.2,0.00,North,0,2.7,8.7,19,0.00,,---,0.00,VWS V13.01,2013-04-02 19:03:00,
2013-04-02 15:08:00,61.9,19.2,0.00,NNW,332,5.8,8.7,19,0.00,,---,0.00,VWS V13.01,2013-04-02 19:08:00,
2013-04-02 15:13:00,61.9,19.2,0.00,West,281,3.6,8.7,19,0.00,,---,0.00,VWS V13.01,2013-04-02 19:13:00,
2013-04-02 15:18:00,61.5,18.9,0.00,NNW,341,5.8,9.2,19,0.00,,---,0.00,VWS V13.01,2013-04-02 19:18:00,
2013-04-02 15:24:00,61.2,18.6,0.00,North,357,2.2,4.5,19,0.00,,---,0.00,VWS V13.01,2013-04-02 19:24:00,
2013-04-02 15:29:00,61.3,18.8,0.00,NNE,16,4.0,5.8,19,0.00,,---,0.00,VWS V13.01,2013-04-02 19:29:00,
2013-04-02 15:34:00,61.5,18.9,0.00,WNW,298,7.6,9.2,19,0.00,,---,0.00,VWS V13.01,2013-04-02 19:34:00,
2013-04-02 15:39:00,61.9,19.2,0.00,NNW,335,8.3,9.2,19,0.00,,---,0.00,VWS V13.01,2013-04-02 19:39:00,
2013-04-02 15:44:00,61.9,19.2,0.00,North,0,3.6,11.0,19,0.00,,---,0.00,VWS V13.01,2013-04-02 19:44:00,
2013-04-02 15:50:00,62.1,19.3,0.00,SE,133,3.1,11.0,19,0.00,,---,0.00,VWS V13.01,2013-04-02 19:50:00,
2013-04-02 15:55:00,62.6,18.5,0.00,NNE,29,2.7,11.0,18,0.00,,---,0.00,VWS V13.01,2013-04-02 19:55:00,
2013-04-02 16:00:00,63.1,19.0,0.00,NNW,331,7.6,13.2,18,0.00,,---,0.00,VWS V13.01,2013-04-02 20:00:00,
2013-04-02 16:05:00,62.8,18.7,0.00,West,261,2.7,7.6,18,0.00,,---,0.00,VWS V13.01,2013-04-02 20:05:00,
2013-04-02 16:10:00,62.8,18.7,0.00,NNW,333,4.0,10.1,18,0.00,,---,0.00,VWS V13.01,2013-04-02 20:10:00,
2013-04-02 16:15:00,62.8,18.7,0.00,WNW,288,8.1,11.0,18,0.00,,---,0.00,VWS V13.01,2013-04-02 20:15:00,
2013-04-02 16:20:00,62.8,18.7,0.00,NNW,330,4.9,7.6,18,0.00,,---,0.00,VWS V13.01,2013-04-02 20:20:00,
2013-04-02 16:25:00,63.0,18.8,0.00,West,262,3.6,7.6,18,0.00,,---,0.00,VWS V13.01,2013-04-02 20:25:00,
2013-04-02 16:30:00,63.3,19.1,0.00,WNW,293,5.8,8.7,18,0.00,,---,0.00,VWS V13.01,2013-04-02 20:30:00,
2013-04-02 16:36:00,63.3,19.1,0.00,WNW,288,4.0,8.7,18,0.00,,---,0.00,VWS V13.01,2013-04-02 20:36:00,
2013-04-02 16:41:00,63.3,19.1,0.00,West,268,4.0,4.9,18,0.00,,---,0.00,VWS V13.01,2013-04-02 20:41:00,
2013-04-02 16:46:00,63.7,19.4,0.00,NE,36,6.3,6.3,18,0.00,,---,0.00,VWS V13.01,2013-04-02 20:46:00,
2013-04-02 16:51:00,63.3,19.1,0.00,NNW,342,5.4,8.1,18,0.00,,---,0.00,VWS V13.01,2013-04-02 20:51:00,
2013-04-02 16:56:00,63.1,19.0,0.00,North,10,4.0,8.1,18,0.00,,---,0.00,VWS V13.01,2013-04-02 20:56:00,
2013-04-02 17:02:00,62.8,18.7,0.00,South,184,4.0,5.4,18,0.00,,---,0.00,VWS V13.01,2013-04-02 21:02:00,
2013-04-02 17:07:00,62.6,18.5,0.00,NNW,341,3.6,5.8,18,0.00,,---,0.00,VWS V13.01,2013-04-02 21:07:00,
2013-04-02 17:12:00,62.6,18.5,0.00,West,275,3.6,5.8,18,0.00,,---,0.00,VWS V13.01,2013-04-02 21:12:00,
2013-04-02 17:17:00,62.2,19.5,0.00,West,273,3.1,8.1,19,0.00,,---,0.00,VWS V13.01,2013-04-02 21:17:00,
2013-04-02 17:22:00,61.9,19.2,0.00,SW,236,3.6,7.6,19,0.00,,---,0.00,VWS V13.01,2013-04-02 21:22:00,
2013-04-02 17:27:00,61.3,18.8,0.00,NNW,338,8.1,8.1,19,0.00,,---,0.00,VWS V13.01,2013-04-02 21:27:00,
2013-04-02 17:32:00,61.0,18.5,0.00,NNW,337,4.0,10.1,19,0.00,,---,0.00,VWS V13.01,2013-04-02 21:32:00,
2013-04-02 17:37:00,61.0,18.5,0.00,NW,315,4.0,10.1,19,0.00,,---,0.00,VWS V13.01,2013-04-02 21:37:00,
2013-04-02 17:43:00,60.8,18.3,0.00,WNW,303,3.6,5.8,19,0.00,,---,0.00,VWS V13.01,2013-04-02 21:43:00,
2013-04-02 17:48:00,60.6,18.2,0.00,NNW,338,4.5,6.7,19,0.00,,---,0.00,VWS V13.01,2013-04-02 21:48:00,
2013-04-02 17:53:00,60.8,18.3,0.00,WSW,250,4.0,7.6,19,0.00,,---,0.00,VWS V13.01,2013-04-02 21:53:00,
2013-04-02 17:58:00,60.8,18.3,0.00,West,278,4.0,8.1,19,0.00,,---,0.00,VWS V13.01,2013-04-02 21:58:00,
2013-04-02 18:03:00,60.6,18.2,0.00,NNE,15,0.0,7.6,19,0.00,,---,0.00,VWS V13.01,2013-04-02 22:03:00,
2013-04-02 18:08:00,60.4,18.0,0.00,North,357,3.1,7.6,19,0.00,,---,0.00,VWS V13.01,2013-04-02 22:08:00,
2013-04-02 18:14:00,60.3,17.9,0.00,NW,326,6.3,8.3,19,0.00,,---,0.00,VWS V13.01,2013-04-02 22:14:00,
2013-04-02 18:19:00,59.7,17.4,0.00,WNW,301,4.9,8.3,19,0.00,,---,0.00,VWS V13.01,2013-04-02 22:19:00,
2013-04-02 18:24:00,59.2,17.0,0.00,NW,321,0.0,8.1,19,0.00,,---,0.00,VWS V13.01,2013-04-02 22:24:00,
2013-04-02 18:29:00,58.8,16.7,0.00,NW,324,3.6,8.1,19,0.00,,---,0.00,VWS V13.01,2013-04-02 22:29:00,
2013-04-02 18:34:00,58.6,16.5,0.00,West,280,2.2,8.1,19,0.00,,---,0.00,VWS V13.01,2013-04-02 22:34:00,
2013-04-02 18:39:00,58.5,16.4,0.00,NNW,333,3.1,8.1,19,0.00,,---,0.00,VWS V13.01,2013-04-02 22:39:00,
2013-04-02 18:44:00,58.3,16.2,0.00,West,260,0.0,5.4,19,0.00,,---,0.00,VWS V13.01,2013-04-02 22:44:00,
2013-04-02 18:49:00,57.9,15.9,0.00,NW,317,2.2,5.4,19,0.00,,---,0.00,VWS V13.01,2013-04-02 22:49:00,
2013-04-02 18:54:00,57.7,15.8,0.00,North,6,0.0,5.4,19,0.00,,---,0.00,VWS V13.01,2013-04-02 22:54:00,
2013-04-02 19:00:00,57.6,15.6,0.00,NNW,334,4.9,5.8,19,0.00,,---,0.00,VWS V13.01,2013-04-02 23:00:00,
2013-04-02 19:05:00,57.4,15.5,0.00,NNW,340,0.0,4.9,19,0.00,,---,0.00,VWS V13.01,2013-04-02 23:05:00,
2013-04-02 19:10:00,57.0,16.4,0.00,NNW,333,4.0,5.4,20,0.00,,---,0.00,VWS V13.01,2013-04-02 23:10:00,
2013-04-02 19:15:00,56.8,16.2,0.00,NNW,327,4.0,5.4,20,0.00,,---,0.00,VWS V13.01,2013-04-02 23:15:00,
2013-04-02 19:20:00,56.7,16.1,0.00,North,357,0.0,5.4,20,0.00,,---,0.00,VWS V13.01,2013-04-02 23:20:00,
2013-04-02 19:25:00,56.5,15.9,0.00,NNW,335,2.7,5.4,20,0.00,,---,0.00,VWS V13.01,2013-04-02 23:25:00,
2013-04-02 19:30:00,56.3,15.8,0.00,North,5,0.0,5.4,20,0.00,,---,0.00,VWS V13.01,2013-04-02 23:30:00,
2013-04-02 19:35:00,56.1,15.6,0.00,NNW,327,0.0,5.4,20,0.00,,---,0.00,VWS V13.01,2013-04-02 23:35:00,
2013-04-02 19:40:00,55.9,15.5,0.00,North,353,0.0,0.0,20,0.00,,---,0.00,VWS V13.01,2013-04-02 23:40:00,
2013-04-02 19:46:00,55.8,15.3,0.00,NNW,327,0.0,0.0,20,0.00,,---,0.00,VWS V13.01,2013-04-02 23:46:00,
2013-04-02 19:52:00,55.4,15.0,0.00,NNW,329,0.0,0.0,20,0.00,,---,0.00,VWS V13.01,2013-04-02 23:52:00,
2013-04-02 19:57:00,55.2,14.9,0.00,NNW,329,0.0,0.0,20,0.00,,---,0.00,VWS V13.01,2013-04-02 23:57:00,
2013-04-02 20:02:00,55.0,14.7,0.00,NNW,329,0.0,0.0,20,0.00,,---,0.00,VWS V13.01,2013-04-03 00:02:00,
2013-04-02 20:07:00,54.9,14.6,0.00,NNW,329,0.0,0.0,20,0.00,,---,0.00,VWS V13.01,2013-04-03 00:07:00,
2013-04-02 20:12:00,54.7,14.4,0.00,NNW,329,0.0,0.0,20,0.00,,---,0.00,VWS V13.01,2013-04-03 00:12:00,
2013-04-02 20:17:00,54.5,14.3,0.00,NNW,329,0.0,0.0,20,0.00,,---,0.00,VWS V13.01,2013-04-03 00:17:00,
2013-04-02 20:23:00,54.3,14.1,0.00,NNW,329,0.0,0.0,20,0.00,,---,0.00,VWS V13.01,2013-04-03 00:23:00,
2013-04-02 20:29:00,53.8,13.7,0.00,NNW,329,0.0,0.0,20,0.00,,---,0.00,VWS V13.01,2013-04-03 00:29:00,
2013-04-02 20:34:00,53.4,14.5,0.00,North,353,0.0,0.0,21,0.00,,---,0.00,VWS V13.01,2013-04-03 00:34:00,
2013-04-02 20:39:00,53.2,14.3,0.00,North,0,0.0,0.0,21,0.00,,---,0.00,VWS V13.01,2013-04-03 00:39:00,
2013-04-02 20:44:00,53.1,14.2,0.00,North,0,0.0,0.0,21,0.00,,---,0.00,VWS V13.01,2013-04-03 00:44:00,
2013-04-02 20:49:00,53.2,14.3,0.00,North,353,0.0,0.0,21,0.00,,---,0.00,VWS V13.01,2013-04-03 00:49:00,
2013-04-02 20:54:00,53.2,14.3,0.00,North,353,0.0,0.0,21,0.00,,---,0.00,VWS V13.01,2013-04-03 00:54:00,
2013-04-02 20:59:00,53.2,14.3,0.00,North,353,0.0,0.0,21,0.00,,---,0.00,VWS V13.01,2013-04-03 00:59:00,
2013-04-02 21:04:00,53.2,14.3,0.00,North,353,0.0,0.0,21,0.00,,---,0.00,VWS V13.01,2013-04-03 01:04:00,
2013-04-02 21:09:00,53.1,14.2,0.00,North,0,0.0,0.0,21,0.00,,---,0.00,VWS V13.01,2013-04-03 01:09:00,
2013-04-02 21:14:00,53.1,14.2,0.00,North,0,0.0,0.0,21,0.00,,---,0.00,VWS V13.01,2013-04-03 01:14:00,
2013-04-02 21:19:00,52.5,15.8,0.00,North,0,0.0,0.0,23,0.00,,---,0.00,VWS V13.01,2013-04-03 01:19:00,
2013-04-02 21:24:00,52.3,15.7,0.00,North,4,0.0,0.0,23,0.00,,---,0.00,VWS V13.01,2013-04-03 01:24:00,
2013-04-02 21:30:00,52.0,15.4,0.00,North,4,0.0,0.0,23,0.00,,---,0.00,VWS V13.01,2013-04-03 01:30:00,
2013-04-02 21:35:00,51.8,18.0,0.00,North,4,0.0,0.0,26,0.00,,---,0.00,VWS V13.01,2013-04-03 01:35:00,
2013-04-02 21:40:00,51.6,17.9,0.00,North,8,0.0,0.0,26,0.00,,---,0.00,VWS V13.01,2013-04-03 01:40:00,
2013-04-02 21:45:00,51.4,17.7,0.00,North,8,0.0,0.0,26,0.00,,---,0.00,VWS V13.01,2013-04-03 01:45:00,
2013-04-02 21:50:00,51.3,17.6,0.00,North,8,0.0,0.0,26,0.00,,---,0.00,VWS V13.01,2013-04-03 01:50:00,
2013-04-02 21:55:00,51.3,15.7,0.00,NNE,15,0.0,0.0,24,0.00,,---,0.00,VWS V13.01,2013-04-03 01:55:00,
2013-04-02 22:00:00,51.3,15.7,0.00,NE,35,0.0,0.0,24,0.00,,---,0.00,VWS V13.01,2013-04-03 02:00:00,
2013-04-02 22:05:00,51.3,12.7,0.00,NNE,13,0.0,0.0,21,0.00,,---,0.00,VWS V13.01,2013-04-03 02:05:00,
2013-04-02 22:10:00,51.3,15.7,0.00,NNE,23,0.0,0.0,24,0.00,,---,0.00,VWS V13.01,2013-04-03 02:10:00,
2013-04-02 22:15:00,51.1,12.5,0.00,NNE,19,0.0,0.0,21,0.00,,---,0.00,VWS V13.01,2013-04-03 02:15:00,
2013-04-02 22:21:00,50.9,12.4,0.00,NNE,23,0.0,0.0,21,0.00,,---,0.00,VWS V13.01,2013-04-03 02:21:00,
2013-04-02 22:26:00,50.9,12.4,0.00,NNE,23,0.0,0.0,21,0.00,,---,0.00,VWS V13.01,2013-04-03 02:26:00,
2013-04-02 22:31:00,50.5,15.1,0.00,NNE,23,0.0,0.0,24,0.00,,---,0.00,VWS V13.01,2013-04-03 02:31:00,
2013-04-02 22:36:00,50.2,14.8,0.00,NNE,23,0.0,0.0,24,0.00,,---,0.00,VWS V13.01,2013-04-03 02:36:00,
2013-04-02 22:41:00,50.0,14.6,0.00,NNW,346,0.0,0.0,24,0.00,,---,0.00,VWS V13.01,2013-04-03 02:41:00,
2013-04-02 22:46:00,49.8,14.5,0.00,NNW,346,0.0,0.0,24,0.00,,---,0.00,VWS V13.01,2013-04-03 02:46:00,
2013-04-02 22:51:00,49.5,16.0,0.00,NNW,346,0.0,0.0,26,0.00,,---,0.00,VWS V13.01,2013-04-03 02:51:00,
2013-04-02 22:56:00,49.3,14.0,0.00,NNW,346,0.0,0.0,24,0.00,,---,0.00,VWS V13.01,2013-04-03 02:56:00,
2013-04-02 23:02:00,49.1,13.9,0.00,NNW,346,0.0,0.0,24,0.00,,---,0.00,VWS V13.01,2013-04-03 03:02:00,
2013-04-02 23:07:00,49.1,15.7,0.00,NNW,348,0.0,0.0,26,0.00,,---,0.00,VWS V13.01,2013-04-03 03:07:00,
2013-04-02 23:12:00,48.9,13.7,0.00,NNW,348,0.0,0.0,24,0.00,,---,0.00,VWS V13.01,2013-04-03 03:12:00,
2013-04-02 23:17:00,48.7,13.6,0.00,NNW,348,0.0,0.0,24,0.00,,---,0.00,VWS V13.01,2013-04-03 03:17:00,
2013-04-02 23:22:00,48.6,15.2,0.00,NNW,348,0.0,0.0,26,0.00,,---,0.00,VWS V13.01,2013-04-03 03:22:00,
2013-04-02 23:27:00,48.6,15.2,0.00,NNW,348,0.0,0.0,26,0.00,,---,0.00,VWS V13.01,2013-04-03 03:27:00,
2013-04-02 23:32:00,48.4,16.0,0.00,NNW,348,0.0,0.0,27,0.00,,---,0.00,VWS V13.01,2013-04-03 03:32:00,
2013-04-02 23:37:00,48.2,14.9,0.00,NNW,341,0.0,0.0,26,0.00,,---,0.00,VWS V13.01,2013-04-03 03:37:00,
2013-04-02 23:43:00,48.0,15.6,0.00,North,0,0.0,0.0,27,0.00,,---,0.00,VWS V13.01,2013-04-03 03:43:00,
2013-04-02 23:48:00,48.0,15.6,0.00,North,0,0.0,0.0,27,0.00,,---,0.00,VWS V13.01,2013-04-03 03:48:00,
2013-04-02 23:53:00,47.8,15.5,0.00,North,0,0.0,0.0,27,0.00,,---,0.00,VWS V13.01,2013-04-03 03:53:00,
2013-04-02 23:58:00,47.7,15.3,0.00,North,353,0.0,0.0,27,0.00,,---,0.00,VWS V13.01,2013-04-03 03:58:00,